Zurück zum Katalog

STARLINK-33837

AktivKommunikationVLEO
NORAD 63501·PAYLOAD·🇺🇸 United States

Gestartet Apr 7, 2025 von Vandenberg Space Force Base

Loading…

Nächste Überflüge (nächste 24 Stunden)

TLE

AktuellSource: CelesTrak SupGP

Epoche: Sep 14, 2026, 15:36 UTC

1 63501C 25071J   26257.65048611 -.00009999  00000+0 -32171-3 0  2574
2 63501  53.1596 341.3099 0001278  78.8337 277.3607 15.31689772    11

Verfolge STARLINK-33837 in Echtzeit mit AllMySat

Download on the App Store